Presure
110 112 131 133 130 133 136 143 125 131 120 129 128 129 136 136 113 134 132 133 138 118 113 122 112 119 138 138 142 136 124 123 139 134 231 169 152 211 215 266 293 244 182 160
108 131 152 152 125 115 144 140 139 132 97 129 126 120 118 100 125 122 113 120 111 109 120 111 112 120 136 139 126 119 122 179 146 192 168 152 200 211 221 267 293 249 186 155
154 129 144 123 143 125 135 115 131 128 95 91 94 115 103 122 120 107 104 119 121 134 115 117 114 111 157 152 183 86 204 213 104 162 115 208 214 218 267 278 288 244 158 154
154 154 137 119 130 145 108 160 155 143 114 139 134 92 98 121 114 115 154 122 108 130 115 110 125 175 185 82 210 190 212 201 135 105 176 168 227 240 245 306 271 229 153 163
158 156 159 160 161 109 127 130 133 132 130 114 105 122 165 129 95 138 149 102 117 110 109 114 109 125 193 169 215 220 180 194 172 172 196 248 250 268 266 287 244 199 180 163
183 170 187 167 188 193 187 189 190 192 188 189 142 177 145 114 133 168 159 148 141 143 196 170 118 148 203 218 208 160 163 170 151 237 167 211 264 257 296 228 204 180 157 165
178 177 176 178 164 162 166 168 169 169 152 214 118 81 184 114 140 124 143 139 119 193 101 206 180 183 196 95 140 143 170 165 163 238 88 224 250 263 235 193 199 155 161 155
149 143 140 138 145 142 143 153 154 156 153 149 179 144 127 66 61 88 86 91 89 199 186 100 172 91 152 91 168 172 167 185 218 101 218 274 244 285 212 196 195 153 157 160
165 182 157 150 156 150 150 153 154 163 169 166 174 178 179 156 159 89 76 78 109 80 165 163 162 94 87 123 137 136 158 191 209 109 246 238 244 222 203 163 198 175 151 166
188 177 174 190 188 179 173 181 197 204 182 172 186 193 177 110 125 161 151 145 144 155 133 155 96 96 98 175 173 205 88 135 124 199 258 237 223 208 176 178 152 146 160 151
182 163 177 174 165 187 189 174 176 178 213 219 204 192 187 182 146 140 186 126 155 161 179 150 134 153 196 167 173 83 198 177 191 197 205 207 207 199 215 193 145 128 158 159
178 190 151 147 192 188 189 197 197 192 201 213 216 206 124 195 186 192 154 166 180 182 184 102 213 214 209 201 198 194 203 194 101 194 201 195 186 195 182 152 179 134 158 153
199 209 215 186 196 207 206 211 209 211 217 229 236 217 221 180 65 198 192 140 160 191 207 189 200 193 202 208 197 198 192 164 181 186 191 148 194 193 148 100 168 142 150 151
193 198 201 210 220 182 231 228 221 232 204 162 253 248 198 167 192 81 133 86 88 174 172 197 224 123 174 178 167 172 99 168 212 195 182 148 184 178 143 186 177 121 175 165
195 182 246 255 271 232 228 234 248 191 231 233 248 195 148 186 207 114 237 120 172 98 109 136 122 162 221 202 202 171 157 187 196 212 152 154 176 144 172 172 146 185 172 170
278 221 229 240 509 484 261 201 83 400 328 320 320 317 318 304 134 69 219 220 184 195 189 188 171 199 185 227 211 194 196 189 199 165 214 171 171 109 195 193 189 153 145 178
255 408 470 462 477 471 488 500 477 479 456 267 335 198 309 316 247 162 241 295 211 90 219 224 191 176 186 208 173 181 187 194 151 154 192 194 196 197 191 180 180 178 211 206
374 435 445 418 436 423 412 68 240 414 433 431 435 346 300 288 310 225 183 216 244 234 169 236 219 156 195 167 126 200 195 161 178 196 181 205 209 162 174 167 166 204 198 149
446 414 426 408 392 382 387 369 366 396 420 404 381 372 359 337 291 294 99 153 86 200 162 227 231 210 161 119 198 199 140 195 193 102 109 204 202 205 165 201 212 193 177 146
430 371 399 394 384 389 385 368 379 362 365 363 361 344 345 342 391 273 270 212 242 180 221 229 197 231 114 169 167 184 141 191 208 187 189 141 194 204 212 197 195 192 146 147
390 373 359 381 377 379 369 358 355 351 369 358 354 254 182 109 342 406 149 206 259 238 194 207 226 109 120 234 103 109 207 206 190 199 179 197 187 201 209 203 198 146 142 161
386 368 368 368 364 383 370 355 352 354 355 154 367 358 341 343 357 250 348 269 264 260 270 197 227 115 99 161 131 99 178 238 212 197 192 191 183 207 203 200 183 140 169 190
386 353 362 361 374 378 318 380 359 349 353 345 336 356 347 357 354 353 341 295 290 271 264 257 248 231 241 224 200 212 200 114 225 230 176 188 188 189 185 179 152 161 156 203
343 339 349 355 377 367 379 351 371 348 346 345 334 340 338 346 349 335 329 295 286 276 260 263 262 269 154 179 172 249 201 181 210 209 202 210 191 193 194 197 152 185 179 190
344 346 336 362 369 381 349 360 361 325 343 343 340 342 332 336 349 332 362 290 238 96 193 285 243 273 257 236 287 207 195 188 120 208 251 209 203 207 198 180 170 205 193 193
340 346 343 361 363 387 359 344 351 268 274 338 390 350 348 341 346 350 250 214 265 256 253 106 232 252 166 319 219 174 154 181 236 177 211 239 215 205 195 225 131 193 195 184
Wind_Speed
53 56 68 61 58 63 64 65 64 68 51 55 56 60 70 68 57 64 63 63 64 39 42 42 50 50 58 59 62 56 56 50 57 44 72 53 52 56 54 61 50 45 44 41
45 67 72 72 64 54 70 69 72 69 45 57 57 59 50 47 57 56 48 48 47 48 51 53 51 53 62 65 51 48 44 72 50 67 54 50 58 58 56 61 50 46 46 43
72 65 74 64 76 68 69 45 64 60 37 41 44 48 51 62 61 59 59 62 59 67 55 55 53 47 77 67 81 34 77 78 36 55 44 64 62 61 70 62 50 47 43 45
73 82 66 59 71 78 44 86 85 78 44 67 52 60 57 71 69 66 86 65 55 67 58 52 62 79 80 24 80 73 78 72 49 30 64 50 70 70 63 53 46 44 47 45
75 80 79 81 86 55 78 81 80 76 71 42 51 53 72 78 62 85 89 52 62 57 55 57 55 60 81 72 80 79 63 69 65 66 71 79 69 67 59 49 42 42 43 46
74 78 78 86 86 87 91 92 95 96 92 90 68 95 57 63 85 96 97 68 68 64 90 70 42 55 82 79 72 56 60 66 57 81 47 59 63 56 53 43 40 44 46 46
74 76 83 87 88 91 92 92 92 92 74 92 59 33 67 58 74 59 97 81 30 88 37 86 83 79 77 42 51 57 65 68 66 68 33 58 55 54 47 43 45 48 45 50
78 79 84 87 89 91 93 97 94 91 87 83 89 68 69 19 14 49 39 16 24 92 82 38 79 39 63 38 65 66 66 69 66 38 59 57 45 51 46 46 47 48 48 50
80 78 91 96 98 97 98 100 106 105 97 92 87 83 79 86 94 45 42 38 58 36 95 87 87 42 41 54 63 60 66 61 61 38 58 51 43 45 47 47 49 49 54 50
78 75 81 81 90 98 107 103 103 106 104 101 89 87 80 56 77 103 104 100 90 89 73 87 45 44 50 73 72 66 37 48 39 50 54 50 48 49 50 48 49 57 52 52
91 97 78 86 97 91 100 113 113 114 109 108 105 84 79 92 108 111 101 69 99 97 93 85 76 85 84 79 59 36 65 60 61 54 49 54 53 53 50 51 52 44 54 56
95 96 88 93 93 99 100 109 110 112 106 114 108 74 93 87 93 103 106 99 100 100 93 50 92 90 85 79 74 70 70 62 39 56 53 51 47 52 52 52 49 56 55 60
98 103 107 91 96 103 110 111 110 115 122 123 119 107 103 75 16 96 96 94 100 100 100 94 90 88 77 81 78 76 70 53 61 57 54 50 53 53 57 30 51 61 61 62
106 105 113 115 117 113 120 119 114 124 116 88 119 108 95 58 81 28 61 31 30 100 93 93 98 54 80 73 67 66 31 59 66 58 56 56 59 60 55 57 56 44 59 62
118 97 116 115 107 120 120 118 118 116 115 116 111 120 83 105 94 47 100 33 88 50 52 51 54 77 92 83 83 70 61 67 65 65 55 58 60 57 61 59 58 58 61 62
104 119 126 122 66 69 113 97 11 93 105 111 106 108 96 91 49 18 93 95 97 103 103 100 81 88 79 91 85 82 84 73 69 61 67 60 60 34 64 63 62 62 63 61
100 75 62 67 55 52 58 56 58 59 70 104 108 110 106 97 87 68 101 93 90 35 95 96 94 80 88 88 71 73 77 77 59 64 68 67 70 69 65 63 62 61 67 68
94 67 60 67 40 39 43 16 37 51 41 48 62 104 115 113 95 72 111 107 103 100 81 99 97 68 96 69 55 89 85 67 70 75 65 74 73 61 62 57 58 66 69 55
50 58 49 54 56 53 44 49 54 43 37 32 45 72 102 105 106 99 38 92 28 85 89 99 97 91 62 48 88 89 54 83 80 28 34 77 73 72 59 67 69 67 63 57
40 56 46 47 53 47 33 41 41 48 44 45 55 72 87 95 93 105 106 75 103 96 88 101 96 97 50 71 69 79 60 83 88 76 74 50 76 73 71 69 67 67 55 55
44 44 53 44 51 49 39 47 44 48 46 51 58 58 48 43 97 82 58 79 99 103 102 98 105 55 60 91 30 43 94 90 77 80 69 79 72 77 72 72 72 54 45 58
37 46 45 48 49 40 41 47 48 48 47 34 48 54 60 64 59 53 81 100 102 100 94 88 111 53 26 64 54 30 55 78 87 86 80 74 66 80 76 74 65 40 61 67
22 39 38 41 41 40 35 40 46 53 45 44 49 47 54 48 48 56 73 87 93 100 100 97 105 98 94 85 86 88 81 35 77 76 70 72 71 72 65 61 55 59 55 72
35 50 45 43 29 43 34 36 44 51 47 47 52 47 51 47 47 53 66 76 84 91 99 97 95 83 53 64 77 84 83 60 69 73 86 86 76 76 77 75 50 64 62 65
38 44 50 39 34 27 27 32 37 42 48 51 50 55 49 47 45 47 53 78 67 25 63 56 50 67 77 60 70 86 89 88 36 79 72 87 86 87 80 60 54 78 64 60
46 46 45 37 36 33 23 33 39 39 42 48 51 54 52 49 45 49 49 66 77 73 64 49 39 68 51 49 62 47 67 88 74 74 68 74 86 85 78 76 32 67 67 47
Wind_Direction
252 252 246 252 249 249 250 252 256 256 260 254 257 261 265 266 260 265 269 272 272 263 252 267 257 264 289 288 286 279 282 285 290 289 306 300 299 301 301 306 292 285 286 287
266 252 252 253 251 259 252 252 253 259 270 255 255 261 271 254 268 267 256 263 255 258 269 262 265 268 282 281 282 285 291 297 289 300 297 296 302 300 300 303 288 284 284 285
246 250 255 260 253 255 254 273 255 260 246 270 271 266 267 273 263 256 261 266 266 278 266 264 269 278 286 287 292 278 296 297 281 293 286 302 300 299 302 298 284 282 282 284
247 247 253 279 271 258 271 257 253 255 262 263 274 274 274 271 268 264 269 263 266 265 267 272 273 282 284 265 293 292 294 294 283 274 297 296 297 299 296 288 282 277 281 286
251 255 258 259 260 259 269 271 267 271 273 269 266 266 259 274 269 273 275 257 265 264 270 273 271 276 284 285 289 291 291 291 291 294 296 295 292 293 297 284 278 274 282 286
256 258 258 261 259 260 260 261 260 261 262 262 267 264 276 276 278 270 276 271 268 274 277 276 265 275 282 285 285 286 286 289 285 295 278 288 290 293 285 283 275 277 285 286
258 263 261 261 266 267 267 266 266 268 267 263 265 266 272 280 272 266 273 273 254 273 246 275 277 278 281 271 279 281 286 286 289 291 248 288 290 290 277 273 274 281 284 286
264 265 265 266 266 265 268 267 266 260 261 261 267 265 264 282 262 279 278 222 261 267 266 247 273 250 272 264 279 282 282 284 288 252 290 284 285 281 268 271 271 282 283 285
263 265 264 266 265 264 264 267 267 269 268 264 267 268 267 267 269 258 269 282 273 265 275 276 279 258 261 281 286 284 282 278 287 261 286 282 280 267 266 277 272 279 283 285
264 262 262 263 266 268 269 269 274 276 269 266 265 265 267 276 265 265 266 267 268 269 267 274 261 261 269 277 281 274 242 267 269 283 284 279 273 267 270 275 284 279 281 285
274 266 269 268 266 271 272 268 269 271 277 277 270 265 266 262 260 260 264 270 267 268 268 269 269 277 273 278 267 249 274 275 278 279 278 278 275 273 276 275 276 283 281 285
281 280 264 267 275 274 275 275 275 273 274 276 271 263 256 260 259 262 261 263 266 268 269 256 269 267 268 269 271 273 270 274 252 278 275 273 273 277 274 271 277 289 281 285
287 291 287 274 277 279 275 274 273 273 275 274 274 266 266 267 237 259 259 262 267 266 268 268 267 269 263 267 269 269 273 265 273 274 274 272 275 274 277 254 275 281 282 285
292 292 291 291 286 275 281 280 281 279 274 272 273 273 263 266 258 292 264 274 276 264 264 263 262 275 266 265 271 272 262 269 271 270 270 268 274 277 272 276 276 288 279 282
294 286 284 277 278 281 281 278 269 268 279 275 270 265 260 261 259 258 252 247 253 286 277 264 267 261 261 262 264 265 269 269 270 272 265 266 269 266 272 275 276 279 279 283
294 293 286 283 279 278 280 282 285 263 259 258 258 257 255 255 257 242 251 250 255 250 254 258 268 260 267 258 259 264 265 266 267 265 272 266 267 260 276 278 279 274 282 283
293 293 289 286 288 285 278 287 280 277 265 261 254 261 251 250 257 248 249 245 249 264 252 250 261 266 264 259 261 259 260 263 260 264 271 270 271 274 275 276 278 280 289 290
300 296 288 291 292 287 288 253 265 270 270 265 262 252 250 250 243 245 251 249 246 247 262 250 246 251 257 245 249 258 262 255 265 268 266 268 271 267 269 273 275 283 287 288
288 293 285 286 284 285 278 273 271 264 256 251 250 257 252 245 244 241 253 255 266 246 264 246 247 249 251 258 253 256 261 263 262 256 257 265 268 271 268 277 281 281 284 285
290 290 288 287 284 283 279 271 266 265 264 249 244 248 254 251 245 243 243 238 241 247 245 245 253 249 259 244 255 262 263 260 257 263 266 261 271 271 273 273 276 279 278 285
294 291 291 283 278 280 285 270 268 259 250 246 247 255 267 271 248 244 250 246 236 241 250 248 246 251 257 246 262 273 250 254 262 261 263 266 271 272 271 272 275 273 280 284
289 287 288 286 285 288 273 264 264 257 251 261 249 245 246 252 257 256 237 239 240 235 234 243 247 236 240 253 243 250 251 251 252 259 261 265 268 269 271 273 273 276 280 287
304 288 290 289 291 285 278 272 261 262 261 247 251 252 248 246 243 246 232 228 232 239 238 237 241 247 248 247 241 243 247 250 250 254 252 265 267 270 269 269 271 275 277 288
281 284 289 294 304 291 292 273 261 262 261 251 251 248 248 244 234 237 226 233 233 234 240 242 245 243 250 245 247 251 251 248 248 251 257 256 267 269 272 275 274 280 282 287
285 286 290 311 307 299 287 279 265 263 260 257 254 248 245 243 233 217 204 224 234 260 246 233 235 244 239 235 239 242 244 252 263 254 255 254 260 261 270 269 273 277 282 288
287 292 301 317 311 313 276 267 267 264 264 263 261 247 240 234 228 218 214 225 221 228 230 251 233 243 229 236 240 243 252 251 248 253 255 256 254 260 268 270 259 276 281 283